Weather History for Ocala, FL

Change the Weather History Date:

Tuesday, February 18, 2014

  Actual Average Record
Temperature  
Mean Temperature 60 °F -  
Max Temperature 78 °F 71 °F 82 °F (2000)
Min Temperature 41 °F 46 °F 24 °F (2013)
Degree Days  
Heating Degree Days 6    
Growing Degree Days 10 (Base 50)    
Moisture  
Dew Point 39 °F    
Average Humidity 59    
Maximum Humidity 72    
Minimum Humidity 30    
Precipitation  
Precipitation 0.00 in - - ()
Sea Level Pressure  
Sea Level Pressure 30.20 in    
Wind  
Wind Speed 1 mph (South)    
Max Wind Speed 7 mph    
Max Gust Speed -    
Visibility 10 miles    
Events      
Averages and records for this station are not official NWS values.
T = Trace of Precipitation, MM = Missing Value Source: NWS Daily Summary

Daily Weather History Graph

Daily Weather History Graph

Search for Another Location

Airport:

Trip Planner

Search our weather history database for the weather conditions in past years. The results will help you decide how hot, cold, wet, or windy it might be!

Date:

Astronomy

Feb. 18, 2014 Rise Set
Actual Time 7:05 AM EST 6:20 PM EST
Civil Twilight 6:41 AM EST 6:45 PM EST
Nautical Twilight 6:13 AM EST 7:12 PM EST
Astronomical Twilight 5:45 AM EST 7:40 PM EST
Moon 9:51 PM EST (2/18) 8:56 AM EST (2/18)
Length of Visible Light 12h 04m
Length of Day
11h 15m
Waning Gibbous, 87% of the Moon is Illuminated
Feb 18
Waning Gibbous
Feb 22
Last Quarter
Mar 1
New
Mar 8
First Quarter
Mar 16
Full

Hourly Weather History & Observations

Time (EST) Temp. Windchill Dew Point Humidity Pressure Visibility Wind Dir Wind Speed Gust Speed Precip Events Conditions
12:15 AM 44.6 °F - 30.2 °F 57% 30.21 in 10.0 mi Calm Calm - N/A   Clear
12:35 AM 42.8 °F - 30.2 °F 61% 30.21 in 10.0 mi Calm Calm - N/A   Clear
12:55 AM 42.8 °F - 30.2 °F 61% 30.21 in 10.0 mi Calm Calm - N/A   Clear
1:15 AM 42.8 °F - 30.2 °F 61% 30.21 in 10.0 mi Calm Calm - N/A   Clear
1:35 AM 41.0 °F - 30.2 °F 65% 30.21 in 10.0 mi Calm Calm - N/A   Clear
1:55 AM 41.0 °F - 30.2 °F 65% 30.21 in 10.0 mi Calm Calm - N/A   Clear
2:15 AM 41.0 °F - 30.2 °F 65% 30.21 in 10.0 mi Calm Calm - N/A   Clear
2:35 AM 42.8 °F - 30.2 °F 61% 30.21 in 10.0 mi Calm Calm - N/A   Clear
2:55 AM 41.0 °F - 30.2 °F 65% 30.21 in 10.0 mi Calm Calm - N/A   Clear
3:15 AM 41.0 °F - 30.2 °F 65% 30.21 in 10.0 mi Calm Calm - N/A   Clear
3:35 AM 41.0 °F - 32.0 °F 70% 30.21 in 10.0 mi Calm Calm - N/A   Clear
3:55 AM 41.0 °F - 30.2 °F 65% 30.20 in 10.0 mi Calm Calm - N/A   Clear
4:15 AM 42.8 °F 41.1 °F 32.0 °F 66% 30.19 in 10.0 mi South 3.5 mph - N/A   Clear
4:35 AM 41.0 °F - 32.0 °F 70% 30.19 in 10.0 mi Calm Calm - N/A   Clear
4:55 AM 42.8 °F 41.1 °F 33.8 °F 70% 30.19 in 10.0 mi South 3.5 mph - N/A   Clear
5:15 AM 42.8 °F - 32.0 °F 66% 30.20 in 10.0 mi Calm Calm - N/A   Clear
5:35 AM 42.8 °F 41.1 °F 33.8 °F 70% 30.19 in 10.0 mi South 3.5 mph - N/A   Clear
5:55 AM 42.8 °F 39.3 °F 32.0 °F 66% 30.19 in 10.0 mi South 5.8 mph - N/A   Clear
6:15 AM 42.8 °F - 32.0 °F 66% 30.19 in 10.0 mi Calm Calm - N/A   Clear
6:35 AM 42.8 °F - 33.8 °F 70% 30.20 in 10.0 mi Calm Calm - N/A   Clear
7:50 AM 44.6 °F - 33.8 °F 66% 30.23 in 10.0 mi Calm Calm - N/A   Clear
8:50 AM 55.4 °F - 37.4 °F 51% 30.24 in 10.0 mi Calm Calm - N/A   Clear
9:50 AM 64.4 °F - 32.0 °F 30% 30.26 in 10.0 mi Calm Calm - N/A   Clear
10:50 AM 71.6 °F - 39.2 °F 31% 30.26 in 10.0 mi NNW 3.5 mph - N/A   Clear
11:50 AM 73.4 °F - 46.4 °F 38% 30.25 in 10.0 mi North 6.9 mph - N/A   Clear
12:50 PM 75.2 °F - 50.0 °F 41% 30.23 in 10.0 mi South 6.9 mph - N/A   Clear
1:50 PM 77.0 °F - 50.0 °F 39% 30.20 in 10.0 mi South 5.8 mph - N/A   Partly Cloudy
2:50 PM 78.8 °F - 48.2 °F 34% 30.18 in 10.0 mi SSW 4.6 mph - N/A   Partly Cloudy
3:50 PM 78.8 °F - 48.2 °F 34% 30.17 in 10.0 mi SSW 5.8 mph - N/A   Partly Cloudy
5:50 PM 75.2 °F - 50.0 °F 41% 30.17 in 10.0 mi SW 4.6 mph - N/A   Clear
6:50 PM 68.0 °F - 46.4 °F 46% 30.18 in 10.0 mi SSW 4.6 mph - N/A   Clear
7:55 PM 62.6 °F - 46.4 °F 55% 30.19 in 10.0 mi East 3.5 mph - N/A   Clear
8:15 PM 60.8 °F - 46.4 °F 59% 30.19 in 10.0 mi East 4.6 mph - N/A   Clear
8:35 PM 62.6 °F - 46.4 °F 55% 30.20 in 10.0 mi Calm Calm - N/A   Clear
8:55 PM 60.8 °F - 46.4 °F 59% 30.20 in 10.0 mi Calm Calm - N/A   Clear
9:15 PM 62.6 °F - 48.2 °F 59% 30.20 in 10.0 mi Calm Calm - N/A   Clear
9:35 PM 60.8 °F - 46.4 °F 59% 30.20 in 10.0 mi Calm Calm - N/A   Clear
9:55 PM 59.0 °F - 46.4 °F 63% 30.20 in 10.0 mi Calm Calm - N/A   Clear
10:15 PM 57.2 °F - 46.4 °F 67% 30.20 in 10.0 mi Calm Calm - N/A   Clear
10:35 PM 57.2 °F - 46.4 °F 67% 30.20 in 10.0 mi Calm Calm - N/A   Clear
10:55 PM 57.2 °F - 46.4 °F 67% 30.20 in 10.0 mi Calm Calm - N/A   Clear
11:15 PM 55.4 °F - 46.4 °F 72% 30.20 in 10.0 mi Calm Calm - N/A   Clear
11:35 PM 55.4 °F - 46.4 °F 72% 30.19 in 10.0 mi Calm Calm - N/A   Clear
11:55 PM 55.4 °F - 46.4 °F 72% 30.18 in 10.0 mi Calm Calm - N/A   Clear